User: anonymous   Login
Location: Gro� Glienicke
(52.4675°N, 13.1079°E)
Time: 07:10:54
(UTC+00:00)
Language:

Cosmos 1825 Rocket - Orbit

View from above orbital plane
View from above orbital plane
View from above satellite
View from above satellite

Ground track
Ground track

The orbit data is extracted from the following two-line orbital elements,

1 17567U 87024B   20273.95356777 +.00000109 +00000-0 +10287-4 0  9992
2 17567 082.5299 155.0829 0018892 349.3326 010.7485 14.83771720793432
Epoch (UTC): 29 September 2020 22:53:08
Eccentricity: 0.0018892
inclination: 82.5299°
perigee height: 604 km
apogee height: 630 km
right ascension of ascending node: 155.0829°
argument of perigee: 349.3326°
revolutions per day: 14.83771720
mean anomaly at epoch: 10.7485°
orbit number at epoch: 79343

The dashed part of the orbit path shows where the satellite is in the earth's shadow,  

DLR